Portada
METAR-TAF:

METAR-TAF

Aeroports :

Marshall County Airport

Lacon, Illinois, Estats Units d'Amèrica

latitud: 41-01-09N, longitud: 089-23-11W, altitud: 173 m

Observació

L'informe es va fer fa 27 minuts, a les 10:35 UTC
Vent 4 kt del Nord
Temperatura -2°C
Humitat 93%
Pressió 1020 hPa
Visibilitat: 11.3 km
Cel clar

METAR: KC75 151035Z AUTO 35004KT 7SM CLR M02/M03 A3013 RMK AO2 T10211026

Hora: 05:02 (11:02 UTC)


TAF: manca

Observacions i pronòstics meteorològics de més de 4000 aeroports (METAR i TAF).

Les estacions disponibles són els punts grocs i vermells al mapa.

Posi el ratolí al punt desitjat per veure el nom de l'estació.

Feu clic per veure les observacions i els pronòstics meteorològics.

Per canviar el mapa: feu clic els botons verds amb una creu de color negre per apropar; al botó verd amb un guió per allunyar la imatge; o en les fletxes verdes per a mapes adjacents.


METAR-TAF: